{"data":{"norad_id":54680,"intl_designator":"2022-166AQ","name":"ONEWEB-0712","alt_names":[],"object_type":"PAYLOAD","status":"ACTIVE","operator":null,"country":"UK","launch_date":"2022-12-08","launch_site_code":"AFETR","launch_vehicle":null,"mission":null,"orbit_class":"UNKNOWN","rcs_meters":null,"size_class":null,"mass_kg":null,"dimensions":null,"purposes":["comms"],"wikipedia_slug":null,"has_3d_model":false,"image_url":null,"decayed_at":null,"tle_current":{"epoch":"2026-09-19T16:13:47.182656Z","epoch_age_seconds":93224,"freshness":"FRESH","line1":"1 54680U 22166AQ  26262.67624054  .00000084  00000+0  18584-3 0  9992","line2":"2 54680  87.9152 210.0159 0002402  69.1436 290.9952 13.16593618184497","mean_motion":13.16593618,"eccentricity":0.0002402,"inclination_deg":87.9152,"raan_deg":210.0159,"arg_perigee_deg":69.1436,"mean_anomaly_deg":290.9952,"bstar":0.00018584,"rev_number":18449,"period_min":109.37315663032,"perigee_km":1195.9393881193,"apogee_km":1199.5788486145,"semimajor_km":7575.8961183669,"source":"CELESTRAK","updated_at":"2026-09-20T09:00:44.749227Z"}}}